Location: Praha
(50.0830°N, 14.4670°E)
Time: 20:03:17
(UTC+02:00)

ISS - Pass Details

Date: 02 May 2021
Orbit: 418 x 422 km, 51.6° (Epoch: 13 April)

Event Time Altitude Azimuth Distance (km) Brightness Sun altitude
Exits shadow 02:46:17 12° 118° (ESE) 1,372 -1.2 -20.4°
Drops below altitude 10° 02:47:01 10° 106° (ESE) 1,504 -0.8 -20.4°
Sets 02:49:54 0° 79° (E) 2,374 0.6 -20.1°
